Home > Weather > Sapporo > Past weeks

Flag for Japan Past Weather in Sapporo, Japan — Yesterday and Last 2 Weeks

Now
83 °F

Warm.


Feels Like: 87 °F
Forecast: 67 / 82 °F
Wind: 5 mph from Southeast

Location: Sapporo

Current Time: Jul 30, 2016 at 6:14:42 PM

Latest Report: Jul 30, 2016 at 5:00 PM


Visibility: N/A

Pressure: 29.85 "Hg

Humidity: 69%

Dew Point: 71 °F

Location of SapporoLocation

Past Weather in Sapporo — Graph

°F

Sapporo Temperature Yesterday

Maximum temperature yesterday: 79 °F (at 2:00 PM)
Minimum temperature yesterday: 71 °F (at 3:00 AM)
Average temperature yesterday: 75 °F

High & Low Weather Summary for the Past Weeks

 TemperatureHumidityPressure
High82 °F (Jul 30, 3:00 PM)96% (Jul 29, 3:00 AM)30.06 "Hg (Jul 29, 3:00 AM)
Low63 °F (Jul 23, 5:00 AM)45% (Jul 21, 12:00 PM)29.62 "Hg (Jul 15, 4:00 PM)
Average71 °F76%29.87 "Hg
* Reported Jul 15 4:00 PM — Jul 30 4:00 PM, Sapporo, Weather by CustomWeather, © 2016

Note: Actual official high and low records may vary slightly from our data, if they occured in-between our weather recording intervals... More about our weather records

Advertising

Sapporo Weather History for the Previous 24 Hours

Scroll right to see more
 ConditionsComfort  
Time TempWeatherWind HumidityBarometerVisibility
4:00 PM
Sat, Jul 30
82 °FWarm.9 mph70%29.85 "HgN/A
3:00 PM82 °FOvercast.9 mph71%29.86 "Hg12 mi
2:00 PM79 °FWarm.12 mph74%29.86 "HgN/A
1:00 PM79 °FWarm.9 mph74%29.86 "HgN/A
12:00 PM77 °FOvercast.12 mph78%29.87 "Hg12 mi
11:00 AM76 °FMild.13 mph78%29.88 "HgN/A
10:00 AM76 °FMild.12 mph78%29.88 "HgN/A
9:00 AM76 °FOvercast.14 mph77%29.88 "Hg12 mi
8:00 AM76 °FMild.17 mph78%29.87 "HgN/A
7:00 AM75 °FMild.15 mph79%29.87 "HgN/A
6:00 AM73 °FOvercast.15 mph82%29.86 "Hg9 mi
5:00 AM73 °FMild.16 mph82%29.86 "HgN/A
4:00 AM73 °FMild.17 mph82%29.85 "HgN/A
3:00 AM73 °FFog.12 mph82%29.85 "Hg3 mi
2:00 AM74 °FMild.15 mph81%29.85 "HgN/A
1:00 AM73 °FMild.13 mph84%29.85 "HgN/A
12:00 AM73 °FMild.10 mph84%29.85 "HgN/A
11:00 PM
Fri, Jul 29
73 °FMild.10 mph84%29.86 "HgN/A
10:00 PM75 °FMild.9 mph83%29.87 "HgN/A
9:00 PM76 °FFog.9 mph81%29.87 "Hg2 mi
8:00 PM76 °FMild.12 mph81%29.87 "HgN/A
7:00 PM77 °FMild.14 mph81%29.85 "HgN/A
6:00 PM76 °FOvercast.7 mph83%29.85 "Hg9 mi
Weather by CustomWeather, © 2016

See weather overviewHow to use our weather pages